SDM601 UMMS-UUWW

Flight info

Callsign SDM601
Flight time N/A
Altitude 33000
Route SORFO2G SORFO L979 PASUD T52 BILRU BILRU3B
Aircraft A320/M-SDE3FGHIRWY/LB1

Departure

Time N/A
Airport Minsk National Airport (UMMS)

Arrival

Time 2026-05-06 08:23
Airport Vnukovo International Airport (UUWW)
Time Latitude Longitude Altitude Speed Heading
2026-05-06 07:38 54.53600 30.49992 31069 ft 479 kts 65°
2026-05-06 07:39 54.54904 30.55260 31375 ft 478 kts 65°
2026-05-06 07:39 54.56208 30.60539 31591 ft 479 kts 65°
2026-05-06 07:39 54.57511 30.65829 31855 ft 479 kts 65°
2026-05-06 07:39 54.58812 30.71120 32133 ft 479 kts 65°
2026-05-06 07:40 54.60091 30.76337 32410 ft 479 kts 65°
2026-05-06 07:40 54.61380 30.81624 32693 ft 478 kts 65°
2026-05-06 07:40 54.62669 30.86924 32864 ft 480 kts 65°
2026-05-06 07:40 54.63964 30.92260 32893 ft 484 kts 65°
2026-05-06 07:41 54.66572 31.03057 32893 ft 492 kts 67°
2026-05-06 07:41 54.68682 31.14373 32893 ft 497 kts 71°
2026-05-06 07:42 54.70725 31.25789 32892 ft 499 kts 71°
2026-05-06 07:42 54.72426 31.35307 32890 ft 500 kts 71°
2026-05-06 07:43 54.74474 31.46808 32890 ft 502 kts 71°
2026-05-06 07:43 54.76513 31.58387 32890 ft 504 kts 72°
2026-05-06 07:44 54.78537 31.70000 32888 ft 498 kts 72°
2026-05-06 07:44 54.79518 31.75648 32903 ft 484 kts 71°
2026-05-06 07:44 54.80482 31.81206 32890 ft 481 kts 71°
2026-05-06 07:45 54.82402 31.92277 32895 ft 479 kts 71°
2026-05-06 07:45 54.84310 32.03348 32889 ft 478 kts 71°
2026-05-06 07:46 54.86186 32.14370 32892 ft 475 kts 72°
2026-05-06 07:46 54.88047 32.25379 32893 ft 475 kts 72°
2026-05-06 07:47 54.89905 32.36386 32892 ft 475 kts 72°
2026-05-06 07:47 54.91750 32.47369 32513 ft 475 kts 73°
2026-05-06 07:48 54.92662 32.52844 32720 ft 468 kts 73°
2026-05-06 07:48 54.93559 32.58266 32977 ft 464 kts 73°
2026-05-06 07:48 54.95319 32.68965 33009 ft 460 kts 74°
2026-05-06 07:49 54.97090 32.79729 33010 ft 470 kts 73°
2026-05-06 07:49 54.98913 32.90828 33008 ft 481 kts 73°
2026-05-06 07:50 55.00740 33.02076 33008 ft 483 kts 73°
2026-05-06 07:50 55.02546 33.13316 33009 ft 484 kts 73°
2026-05-06 07:51 55.04344 33.24569 33009 ft 484 kts 73°
2026-05-06 07:51 55.06133 33.35841 33008 ft 484 kts 73°
2026-05-06 07:52 55.07917 33.47155 33008 ft 484 kts 73°
2026-05-06 07:52 55.09704 33.58481 33007 ft 484 kts 73°
2026-05-06 07:53 55.11466 33.69819 33005 ft 484 kts 74°
2026-05-06 07:53 55.13219 33.81167 33005 ft 484 kts 74°
2026-05-06 07:54 55.14967 33.92540 32754 ft 485 kts 74°
2026-05-06 07:54 55.15838 33.98234 32503 ft 485 kts 74°
2026-05-06 07:54 55.16706 34.03928 32252 ft 485 kts 74°
2026-05-06 07:55 55.17573 34.09636 32004 ft 486 kts 74°
2026-05-06 07:55 55.18433 34.15299 31756 ft 486 kts 74°
2026-05-06 07:55 55.19296 34.21018 31510 ft 486 kts 75°
2026-05-06 07:55 55.20139 34.26642 31262 ft 476 kts 75°
2026-05-06 07:56 55.20969 34.32187 31010 ft 481 kts 74°
2026-05-06 07:56 55.21817 34.37879 30604 ft 484 kts 74°
2026-05-06 07:56 55.22669 34.43630 29424 ft 492 kts 75°
2026-05-06 07:56 55.23524 34.49424 28745 ft 487 kts 75°
2026-05-06 07:57 55.24365 34.55132 28076 ft 482 kts 75°
2026-05-06 07:57 55.25198 34.60788 27393 ft 478 kts 75°
2026-05-06 07:57 55.26022 34.66406 26721 ft 473 kts 75°
2026-05-06 07:57 55.26832 34.71976 26071 ft 470 kts 75°
2026-05-06 07:58 55.27636 34.77508 25423 ft 466 kts 75°
2026-05-06 07:58 55.28431 34.82996 24783 ft 463 kts 75°
2026-05-06 07:58 55.29221 34.88448 24148 ft 459 kts 75°
2026-05-06 07:58 55.30001 34.93860 23512 ft 456 kts 75°
2026-05-06 07:59 55.30771 34.99227 22919 ft 452 kts 75°
2026-05-06 07:59 55.31529 35.04554 22326 ft 448 kts 75°
2026-05-06 07:59 55.32278 35.09842 21784 ft 444 kts 75°
2026-05-06 07:59 55.33019 35.15082 21241 ft 440 kts 75°
2026-05-06 08:00 55.33751 35.20265 20746 ft 435 kts 75°
2026-05-06 08:00 55.34477 35.25409 20247 ft 432 kts 75°
2026-05-06 08:00 55.35194 35.30499 19770 ft 427 kts 75°
2026-05-06 08:00 55.35903 35.35547 19291 ft 423 kts 75°
2026-05-06 08:01 55.36603 35.40546 18830 ft 419 kts 75°
2026-05-06 08:01 55.37291 35.45502 18375 ft 415 kts 75°
2026-05-06 08:01 55.37962 35.50363 18237 ft 402 kts 75°
2026-05-06 08:01 55.38497 35.55104 18088 ft 391 kts 83°
2026-05-06 08:02 55.38562 35.59837 17778 ft 384 kts 95°
2026-05-06 08:02 55.38156 35.64448 17394 ft 380 kts 103°
2026-05-06 08:02 55.37625 35.68986 16992 ft 378 kts 102°
2026-05-06 08:02 55.37100 35.73495 16596 ft 375 kts 102°
2026-05-06 08:03 55.36578 35.77981 16200 ft 373 kts 102°
2026-05-06 08:03 55.36060 35.82431 15807 ft 371 kts 102°
2026-05-06 08:03 55.35542 35.86870 15414 ft 369 kts 102°
2026-05-06 08:03 55.35027 35.91279 15026 ft 367 kts 102°
2026-05-06 08:04 55.34523 35.95600 14658 ft 365 kts 102°
2026-05-06 08:04 55.34018 35.99952 14288 ft 363 kts 102°
2026-05-06 08:04 55.33514 36.04287 13921 ft 361 kts 102°
2026-05-06 08:04 55.33011 36.08594 13555 ft 359 kts 103°
2026-05-06 08:05 55.32507 36.12884 13191 ft 357 kts 103°
2026-05-06 08:05 55.32005 36.17145 12835 ft 356 kts 102°
2026-05-06 08:05 55.31506 36.21385 12468 ft 354 kts 103°
2026-05-06 08:05 55.31010 36.25606 12110 ft 352 kts 103°
2026-05-06 08:06 55.30512 36.29795 11880 ft 351 kts 103°
2026-05-06 08:06 55.30010 36.33975 11540 ft 349 kts 103°
2026-05-06 08:06 55.29510 36.38130 11183 ft 347 kts 103°
2026-05-06 08:06 55.29006 36.42230 10972 ft 339 kts 103°
2026-05-06 08:07 55.28502 36.46194 10800 ft 329 kts 104°
2026-05-06 08:07 55.28002 36.50058 10450 ft 326 kts 104°
2026-05-06 08:07 55.27502 36.53898 10258 ft 318 kts 104°
2026-05-06 08:07 55.27017 36.57631 10132 ft 309 kts 104°
2026-05-06 08:08 55.26493 36.61232 9979 ft 301 kts 111°
2026-05-06 08:08 55.25610 36.64503 9758 ft 294 kts 125°
2026-05-06 08:08 55.24549 36.67558 9416 ft 293 kts 125°
2026-05-06 08:08 55.23490 36.70612 9032 ft 293 kts 124°
2026-05-06 08:09 55.22433 36.73659 8652 ft 292 kts 124°
2026-05-06 08:09 55.21380 36.76691 8288 ft 291 kts 124°
2026-05-06 08:09 55.20335 36.79707 7919 ft 289 kts 124°
2026-05-06 08:09 55.19295 36.82707 7550 ft 287 kts 125°
2026-05-06 08:10 55.18255 36.85692 7184 ft 286 kts 124°
2026-05-06 08:10 55.17238 36.88618 7144 ft 281 kts 124°
2026-05-06 08:10 55.16217 36.91547 7151 ft 282 kts 124°
2026-05-06 08:10 55.15281 36.94565 7074 ft 284 kts 111°
2026-05-06 08:11 55.14980 36.97963 6950 ft 285 kts 85°
2026-05-06 08:11 55.15473 37.01240 6826 ft 281 kts 58°
2026-05-06 08:11 55.16590 37.03985 6699 ft 276 kts 47°
2026-05-06 08:11 55.17795 37.06608 6571 ft 276 kts 47°
2026-05-06 08:12 55.19000 37.09232 6448 ft 277 kts 47°
2026-05-06 08:12 55.20204 37.11858 6325 ft 276 kts 47°
2026-05-06 08:12 55.21406 37.14483 6194 ft 276 kts 47°
2026-05-06 08:12 55.22607 37.17111 6070 ft 276 kts 47°
2026-05-06 08:13 55.23804 37.19739 5939 ft 276 kts 47°
2026-05-06 08:13 55.24978 37.22326 5823 ft 274 kts 47°
2026-05-06 08:13 55.26173 37.24965 5684 ft 269 kts 47°
2026-05-06 08:13 55.27305 37.27472 5565 ft 264 kts 47°
2026-05-06 08:14 55.28443 37.29992 5440 ft 263 kts 47°
2026-05-06 08:14 55.29580 37.32506 5312 ft 262 kts 47°
2026-05-06 08:14 55.30729 37.34975 5189 ft 259 kts 40°
2026-05-06 08:14 55.32115 37.36894 5063 ft 251 kts 22°
2026-05-06 08:15 55.33705 37.38042 4939 ft 245 kts
2026-05-06 08:15 55.35349 37.38817 4815 ft 246 kts
2026-05-06 08:15 55.36992 37.39602 4692 ft 244 kts
2026-05-06 08:15 55.38616 37.40385 4552 ft 239 kts
2026-05-06 08:16 55.40221 37.41157 4427 ft 240 kts
2026-05-06 08:16 55.41828 37.41928 4297 ft 239 kts
2026-05-06 08:16 55.43430 37.42695 4172 ft 238 kts
2026-05-06 08:16 55.45022 37.43458 4044 ft 238 kts
2026-05-06 08:17 55.46632 37.44238 3927 ft 241 kts
2026-05-06 08:17 55.48242 37.45005 4096 ft 237 kts
2026-05-06 08:17 55.49815 37.45757 4144 ft 231 kts
2026-05-06 08:17 55.51316 37.46489 4130 ft 218 kts
2026-05-06 08:18 55.52751 37.47191 3989 ft 210 kts
2026-05-06 08:18 55.54150 37.47867 3868 ft 207 kts
2026-05-06 08:18 55.55562 37.48543 3739 ft 208 kts
2026-05-06 08:18 55.56958 37.49211 3613 ft 208 kts
2026-05-06 08:19 55.58351 37.49860 3485 ft 205 kts
2026-05-06 08:19 55.59725 37.49842 3369 ft 192 kts 338°
2026-05-06 08:19 55.60946 37.49020 3124 ft 186 kts 321°
2026-05-06 08:19 55.61923 37.47561 2781 ft 182 kts 303°
2026-05-06 08:20 55.62524 37.45727 2552 ft 163 kts 287°
2026-05-06 08:20 55.62747 37.43879 2392 ft 146 kts 272°
2026-05-06 08:20 55.62676 37.42144 2238 ft 138 kts 259°
2026-05-06 08:20 55.62371 37.40538 2076 ft 137 kts 252°
2026-05-06 08:21 55.62025 37.38988 1893 ft 133 kts 254°
2026-05-06 08:21 55.61684 37.37459 1719 ft 134 kts 255°
2026-05-06 08:21 55.61323 37.35872 1527 ft 144 kts 258°
2026-05-06 08:21 55.60975 37.34285 1346 ft 136 kts 252°
2026-05-06 08:22 55.60630 37.32731 1165 ft 135 kts 251°
2026-05-06 08:22 55.60293 37.31225 1000 ft 138 kts 254°
2026-05-06 08:22 55.59942 37.29638 805 ft 137 kts 248°
2026-05-06 08:22 55.59691 37.28549 696 ft 131 kts 251°
2026-05-06 08:23 55.59340 37.26953 669 ft 75 kts 248°
2026-05-06 08:23 55.59237 37.26507 669 ft 40 kts 248°